GW3210 Weather Reports


time (UTC)temp
F
wind
direction
speed
knots
gust
knots
rain 1hr
in
rain 24hr
in
rain mn
in
humidity
%
barometer
mb
20260510105316 53 293 3.5 5.2 0.00 0.00 0.00 65 1018.9
20260510104316 54 293 5.2 7.8 0.00 0.00 0.00 65 1018.6
20260510103317 54 293 2.6 4.3 0.00 0.00 0.00 64 1018.5
20260510102316 54 270 3.5 6.1 0.00 0.00 0.00 64 1018.3
20260510101316 55 293 3.5 5.2 0.00 0.00 0.00 64 1017.9
20260510100316 55 315 5.2 7.8 0.00 0.00 0.00 64 1017.7
20260510095317 55 315 5.2 10.4 0.00 0.00 0.00 64 1018.0
20260510094316 56 270 3.5 6.1 0.00 0.00 0.00 64 1017.9
20260510093316 56 315 2.6 3.5 0.00 0.00 0.00 63 1018.0
20260510092316 57 293 5.2 7.8 0.00 0.00 0.00 62 1018.0
20260510091316 57 293 2.6 4.3 0.00 0.00 0.00 61 1018.0
20260510090316 58 293 5.2 7.8 0.00 0.00 0.00 60 1017.8
20260510085316 58 293 2.6 3.5 0.00 0.00 0.00 59 1017.8
20260510084316 59 270 1.7 3.5 0.00 0.00 0.00 57 1017.8
20260510083316 59 248 1.7 2.6 0.00 0.00 0.00 56 1017.8
20260510082316 59 270 1.7 2.6 0.00 0.00 0.00 55 1017.8
20260510081316 59 270 1.7 2.6 0.00 0.00 0.00 54 1017.8
20260510080357 59 270 0.9 1.7 0.00 0.00 0.00 54 1017.8
20260510075316 59 270 0.9 1.7 0.00 0.00 0.00 54 1017.8
20260510074317 59 315 0.9 2.6 0.00 0.00 0.00 54 1017.7
20260510073316 59 0.0 0.9 0.00 0.00 0.00 54 1017.7
20260510072317 60 0.0 0.0 0.00 0.00 0.00 53 1017.6
20260510071316 60 0.0 0.0 0.00 0.00 0.00 52 1017.7
20260510070316 61 315 0.9 0.9 0.00 0.00 0.00 51 1017.6
20260510065316 61 0.0 0.9 0.00 0.00 0.00 51 1017.6
20260510064318 62 0.0 0.0 0.00 0.00 0.00 49 1017.7
20260510063317 62 0.0 0.9 0.00 0.00 0.00 49 1017.6
20260510062316 62 293 1.7 3.5 0.00 0.00 0.00 48 1017.6
20260510061317 63 315 2.6 4.3 0.00 0.00 0.00 48 1017.5
20260510060316 63 315 3.5 4.3 0.00 0.00 0.00 48 1017.5
20260510055316 63 338 1.7 3.5 0.00 0.00 0.00 47 1017.5
20260510054317 63 315 2.6 3.5 0.00 0.00 0.00 47 1017.3
20260510053317 64 315 2.6 4.3 0.00 0.00 0.00 46 1017.4
20260510052337 64 338 3.5 5.2 0.00 0.00 0.00 46 1017.3
20260510051338 65 293 2.6 2.6 0.00 0.00 0.00 45 1017.3
20260510050316 65 293 4.3 7.0 0.00 0.00 0.00 44 1017.4
20260510045317 65 270 3.5 7.0 0.00 0.00 0.00 44 1017.3
20260510044316 65 293 2.6 5.2 0.00 0.00 0.00 44 1017.2
20260510043316 66 293 2.6 4.3 0.00 0.00 0.00 43 1017.2
20260510042316 66 315 1.7 3.5 0.00 0.00 0.00 43 1017.0
20260510041316 67 293 0.9 1.7 0.00 0.00 0.00 42 1016.8
20260510040316 67 315 2.6 4.3 0.00 0.00 0.00 41 1016.7
20260510035317 67 315 1.7 4.3 0.00 0.00 0.00 41 1016.6
20260510034317 68 293 1.7 2.6 0.00 0.00 0.00 40 1016.5
20260510033317 69 315 1.7 3.5 0.00 0.00 0.00 40 1016.4
20260510032316 69 293 1.7 3.5 0.00 0.00 0.00 39 1016.5
20260510031316 70 315 1.7 2.6 0.00 0.00 0.00 38 1016.5
20260510030316 70 293 2.6 3.5 0.00 0.00 0.00 38 1016.4
20260510025316 71 293 1.7 2.6 0.00 0.00 0.00 37 1016.3
20260510024316 72 315 2.6 3.5 0.00 0.00 0.00 36 1016.4
20260510023316 72 293 2.6 5.2 0.00 0.00 0.00 35 1016.4
20260510022316 73 293 2.6 3.5 0.00 0.00 0.00 34 1016.6
20260510021316 73 315 1.7 2.6 0.00 0.00 0.00 32 1016.5
20260510020316 73 293 3.5 6.1 0.00 0.00 0.00 30 1016.5
20260510015316 74 270 1.7 4.3 0.00 0.00 0.00 27 1016.7
20260510014316 74 293 2.6 4.3 0.00 0.00 0.00 26 1016.8
20260510013316 75 0 4.3 7.8 0.00 0.00 0.00 26 1016.8
20260510012316 75 293 3.5 7.0 0.00 0.00 0.00 22 1016.8
20260510011316 76 315 4.3 7.0 0.00 0.00 0.00 22 1016.9
20260510010316 76 338 2.6 3.5 0.00 0.00 0.00 24 1016.9
20260510005316 76 315 2.6 3.5 0.00 0.00 0.00 24 1017.2
20260510004316 76 293 4.3 7.0 0.00 0.00 0.00 24 1017.1
20260510003316 76 315 3.5 4.3 0.00 0.00 0.00 23 1017.1
20260510002316 76 338 3.5 5.2 0.00 0.00 0.00 22 1017.2
20260510001316 78 293 6.1 7.0 0.00 0.00 0.00 21 1017.3
20260510000318 78 338 4.3 7.0 0.00 0.00 0.00 23 1017.4
20260509235315 79 0 4.3 7.0 0.00 0.00 0.00 26 1017.5
20260509234316 79 315 3.5 7.8 0.00 0.00 0.00 26 1017.5
20260509233316 78 338 4.3 7.8 0.00 0.00 0.00 27 1017.6
20260509232316 78 315 4.3 8.7 0.00 0.00 0.00 29 1017.6
20260509231316 77 338 3.5 7.0 0.00 0.00 0.00 29 1017.7
20260509230316 78 338 5.2 7.0 0.00 0.00 0.00 27 1018.1
20260509225316 79 293 4.3 7.0 0.00 0.00 0.00 27 1018.2
20260509224316 79 293 3.5 6.1 0.00 0.00 0.00 28 1018.3
20260509223315 79 338 6.1 8.7 0.00 0.00 0.00 30 1018.5
20260509222315 79 315 5.2 7.8 0.00 0.00 0.00 33 1018.6
20260509221316 78 270 3.5 6.1 0.00 0.00 0.00 32 1018.7
20260509220315 78 270 3.5 7.8 0.00 0.00 0.00 32 1018.7
20260509215336 78 293 3.5 5.2 0.00 0.00 0.00 32 1018.8
20260509214315 77 0 3.5 6.1 0.00 0.00 0.00 35 1019.0
20260509213316 77 315 7.0 9.6 0.00 0.00 0.00 34 1019.2
20260509212315 77 338 5.2 7.8 0.00 0.00 0.00 35 1019.3
20260509211315 76 293 4.3 6.1 0.00 0.00 0.00 35 1019.3
20260509210336 76 315 4.3 7.8 0.00 0.00 0.00 33 1019.3
20260509205315 76 293 4.3 7.0 0.00 0.00 0.00 36 1019.4
20260509204316 75 338 4.3 7.0 0.00 0.00 0.00 36 1019.8
20260509203316 75 0 5.2 7.8 0.00 0.00 0.00 36 1019.9
20260509202316 75 338 4.3 7.0 0.00 0.00 0.00 36 1020.1
20260509201316 75 270 3.5 6.1 0.00 0.00 0.00 35 1020.1
20260509200317 75 293 3.5 7.0 0.00 0.00 0.00 34 1020.2
20260509195338 75 315 2.6 4.3 0.00 0.00 0.00 37 1020.4
20260509194317 74 315 3.5 6.1 0.00 0.00 0.00 37 1020.4
20260509193317 73 248 3.5 6.1 0.00 0.00 0.00 38 1020.7
20260509192318 72 0 4.3 7.8 0.00 0.00 0.00 42 1020.7
20260509191315 71 293 1.7 5.2 0.00 0.00 0.00 40 1020.9
20260509190317 71 270 6.1 7.8 0.00 0.00 0.00 42 1021.1
20260509185338 71 338 2.6 7.0 0.00 0.00 0.00 43 1021.1
20260509184317 70 248 2.6 5.2 0.00 0.00 0.00 43 1021.3
20260509183317 69 293 2.6 6.1 0.00 0.00 0.00 47 1021.4
20260509182317 68 293 1.7 4.3 0.00 0.00 0.00 48 1021.5
20260509181338 67 315 4.3 6.1 0.00 0.00 0.00 50 1021.4
20260509180337 66 248 2.6 3.5 0.00 0.00 0.00 50 1021.4
20260509175337 65 293 2.6 3.5 0.00 0.00 0.00 52 1021.6
20260509174317 65 315 1.7 2.6 0.00 0.00 0.00 55 1021.8
20260509173317 63 270 0.9 2.6 0.00 0.00 0.00 54 1021.8
20260509172317 62 338 3.5 4.3 0.00 0.00 0.00 59 1022.0
20260509171317 61 270 2.6 6.1 0.00 0.00 0.00 59 1022.1
20260509170317 60 338 2.6 4.3 0.00 0.00 0.00 62 1022.0
20260509165317 58 270 2.6 5.2 0.00 0.00 0.00 63 1022.2
20260509164338 57 315 2.6 4.3 0.00 0.00 0.00 64 1022.3
20260509163317 57 293 0.9 2.6 0.00 0.00 0.00 65 1022.3
20260509162317 56 293 2.6 3.5 0.00 0.00 0.00 65 1022.5
20260509161317 55 315 1.7 3.5 0.00 0.00 0.00 66 1022.5
20260509160317 55 68 0.9 0.9 0.00 0.00 0.00 67 1022.5
20260509155317 54 23 0.9 1.7 0.00 0.00 0.00 69 1022.4
20260509154337 53 315 1.7 2.6 0.00 0.00 0.00 69 1022.4
20260509153316 53 0 0.9 2.6 0.00 0.00 0.00 69 1022.6
20260509152317 52 338 1.7 2.6 0.00 0.00 0.00 70 1022.8
20260509151316 52 293 1.7 2.6 0.00 0.00 0.00 70 1023.1
20260509150337 52 0 2.6 3.5 0.00 0.00 0.00 72 1023.1
20260509145317 51 113 0.9 0.9 0.00 0.00 0.00 74 1023.0
20260509144317 51 158 0.9 1.7 0.00 0.00 0.00 76 1022.9
20260509143316 50 0.0 0.9 0.00 0.00 0.00 78 1022.9
20260509142337 50 158 0.9 0.9 0.00 0.00 0.00 81 1022.8
20260509141317 50 158 1.7 2.6 0.00 0.00 0.00 81 1022.7
20260509140317 49 158 0.9 1.7 0.00 0.00 0.00 82 1022.8
20260509135317 49 158 1.7 2.6 0.00 0.00 0.00 82 1022.7
20260509134317 48 135 2.6 3.5 0.00 0.00 0.00 83 1022.7
20260509133317 47 158 2.6 2.6 0.00 0.00 0.00 82 1022.7
20260509132317 47 180 2.6 2.6 0.00 0.00 0.00 78 1022.6
20260509131316 47 203 0.9 1.7 0.00 0.00 0.00 76 1022.6
20260509130337 47 203 1.7 1.7 0.00 0.00 0.00 74 1022.7
20260509125316 47 0.0 0.0 0.00 0.00 0.00 73 1022.7
20260509124316 47 0.0 0.0 0.00 0.00 0.00 72 1022.9
20260509123316 47 0.0 0.0 0.00 0.00 0.00 72 1022.9
20260509122317 47 0.0 0.0 0.00 0.00 0.00 71 1022.9
20260509121316 47 0.0 0.0 0.00 0.00 0.00 69 1022.9
20260509120316 47 0.0 0.0 0.00 0.00 0.00 69 1022.8
20260509115337 48 0.0 0.0 0.00 0.00 0.00 68 1023.0
20260509114337 48 0.0 0.0 0.00 0.00 0.00 68 1023.0
20260509113316 48 0.0 0.0 0.00 0.00 0.00 68 1023.2
20260509112317 49 0.0 0.0 0.00 0.00 0.00 68 1023.3
20260509111316 49 270 0.9 1.7 0.00 0.00 0.00 68 1023.4
20260509110358 49 270 0.9 0.9 0.00 0.00 0.00 67 1023.4